User: anonymous   Login
Location: Caltech
(34.1382°N, 118.1253°W)
Time: 23:26:42
(UTC-08:00)
Language:

Cosmos 1937 Rocket - Orbit

View from above orbital plane
View from above orbital plane
View from above satellite
View from above satellite

Ground track
Ground track

The orbit data is extracted from the following two-line orbital elements,

1 19039U 88029B   15063.87495830  .00000431  00000-0  15022-3 0  9999
2 19039 074.0481 037.4676 0022614 056.1601 327.7095 14.38163183410764
Epoch (UTC): 04 March 2015 20:59:56
Eccentricity: 0.0022614
inclination: 74.0481°
perigee height: 748 km
apogee height: 781 km
right ascension of ascending node: 37.4676°
argument of perigee: 56.1601°
revolutions per day: 14.38163183
mean anomaly at epoch: 327.7095°
orbit number at epoch: 41076

The dashed part of the orbit path shows where the satellite is in the earth's shadow,  

DLR